Погода Нижний Тагил

Погода Нижний Тагил : погода сейчас, прогноз погоды и архив. Всё, что Вы хотите узнать о погоде Нижний Тагил!

Хотите узнать прогноз погоды Нижний Тагил? Тогда Вам сюда: Погода Нижний Тагил

Поиск расширенной информации на нашем сайте:

Другие новости

Новости СМИ2

Главная страница сайта

Новости сайта

02.10.2013

Напоминаем, что на нашем новом сайте вы можете получить высокодетализированные прогнозы погоды по пунктам России, СНГ и мира (включающие важные для авиации метеовеличины, такие как направление и скорость ветра, видимость, явления погоды, количество и форма облачности, нижняя и верхняя граница облачности), а также ознакомиться с разнообразными материалами по авиационной метеорологии и подборкой полезных ссылок на эту тему.

Сайт Метеоцентр.Азия посвящён разработке технологий оптимизации авиаметеорологического обслуживания, включая проектирование и перспективное создание нескольких автоматизированных авиаметеорологических систем:
- система выпуска высокодетальных прогностических карт явлений погоды для нижнего воздушного пространства по России и ближнему зарубежью;
- система верификации прогнозов TAF (выпускаемых синоптиками официальных АМСГ РФ и ближнего зарубежья) и AUTOTAF (выпускаемых сайтом Метеоцентр.Азия) - выявление ошибок, онлайн-сопоставление с фактической погодой METAR, автоматическое внесение коррективов в прогнозы при резком отклонении фактической погоды от прогноза, подсчёт оправдываемости прогнозов по элементам и в целом;
- система обработки, анализа и отображения авиаметеорологической информации для применения провайдерами метеорологической информации.

Рекомендуем: Сравнить цены на лазерная гравировка.

Погода Нижний Тагил - сегодня

Время (UTC), дата Ветер
(°,м/с) 
Видим.   Явления Облачность Т
(°С)
Тd
(°С)
f(%) Тe
(°С)
Pmin
(гПа)
dP
(гПа)
Po
(мм)
O2
(г/м3)
Тmin Tmax R s Состояние
почвы
18 16.01.17 250 (З) 20000 м    10/0 верхняя 
[Cc]
-10.4 -14.4 72 -12  1037.1  -0.2  752  316           
21 16.01.17 210 (ЮЗ) 20000 м    10/0 средняя, верхняя 
[Ac trans|Cc]
-10.3 -15.3 67 -12  1037.1  752  316           
00 17.01.17 250 (З) 20000 м    5/0 верхняя 
[Cc]
-9.7 -15.8 61 -10  1037.7  0.7  753  316           
03 17.01.17 130 (ЮВ) 20000 м    ясно 
-15.6 -16.9 90 -16  1038.8  0.2  753  323  -16.4      44  равномерный
сухой снег
100% 
06 17.01.17 200 (Ю) 20000 м    3/0 верхняя 
[Ci fib]
-11.9 -15.9 72 -12  1038.6  0.3  753  319  -17.8         
09 17.01.17 230 (ЮЗ) 20000 м    ясно 
-5.4 -15 47 -5  1037.4  -0.4  753  311           
12 17.01.17 тихо ()   20000 м    ясно 
-8.7 -13.9 66 -9  1037.8  753  315           
15 17.01.17 090 (В) 20000 м    ясно 
-14.5 -15.5 92 -15  1038.3  -0.3  752  322    -5       
18 17.01.17 130 (ЮВ) 20000 м    ясно 
-16.8 -17.9 91 -17  1037.7  -0.9  752  324           
21 17.01.17 100 (В) 20000 м    ясно 
-17.3 -18.6 90 -17  1036.9  -0.9  751  325           
00 18.01.17 100 (В) 20000 м    ясно 
-18.8 -20.2 89 -19  1036.1  -1  750  326           
03 18.01.17 140 (ЮВ) 20000 м    ясно 
-19.6 -21.1 88 -20  1034.6  -1.5  749  327  -20.1      44  равномерный
сухой снег
100% 
06 18.01.17 тихо ()   20000 м    ясно 
-17.6 -18.9 90 -18  1033  -1.3  748  324  -21.2         
09 18.01.17 250 (З) 20000 м    ясно 
-11 -12.3 90 -11  1030.6  -1.5  747  315           
12 18.01.17 130 (ЮВ) 20000 м    ясно 
-14.8 -15.6 94 -15  1029.8  -1.3  746  319           
15 18.01.17 200 (Ю) 20000 м    3/0 средняя 
[Ac trans]
-16.4 -17.6 90 -17  1028.7  -1.2  745  321    -8.5       
18 18.01.17 150 (ЮВ) 20000 м    5/0 средняя 
[Ac trans]
-17.3 -18.7 89 -17  1027.6  -1.2  744  322           
21 18.01.17 150 (ЮВ) 20000 м    ясно 
-18.6 -20.1 88 -19  1026.1  -1.6  743  323           
00 19.01.17 210 (ЮЗ) 20000 м    ясно 
-18.1 -19.7 87 -18  1025.4  -0.6  743  322           
03 19.01.17 260 (З) 20000 м    ясно 
-16 -17.3 90 -16  1023.6  -1.5  742  319  -19.9      44  равномерный
сухой снег
100% 
06 19.01.17 240 (ЮЗ) 20000 м    ясно 
-15.3 -16.9 88 -18  1023.4  -0.1  742  318           
09 19.01.17 250 (З) 20000 м    ясно 
-14 -16.7 80 -19  1022.1  -1.1  741  316           
12 19.01.17 230 (ЮЗ) 20000 м    ясно 
-15.1 -17.2 84 -19  1020.7  -1.4  740  317           
15 19.01.17 230 (ЮЗ) 20000 м    ясно 
-16.2 -17.7 88 -20  1018.9  -2  738  318    -13.5       
18 19.01.17 220 (ЮЗ) 20000 м    ясно 
-14.5 -16.3 86 -18  1014.5  -4  735  314           
Время (UTC), дата Ветер
(°,м/с) 
Видим.   Явления Облачность Т
(°С)
Тd
(°С)
f(%) Тe
(°С)
Pmin
(гПа)
dP
(гПа)
Po
(мм)
O2
(г/м3)
Тmin Tmax R s Состояние
почвы

Для получения пояснительной информации подведите курсор к названию столбца.

ПОГОДА Нижний Тагил - архив

Всё, что Вы хотите узнать о погоде Нижний Тагил - удобно и подробно!

Выберите нужную дату (начиная с 1 января 2015* года) и нажмите кнопку "Найти".
Будут отображены архивные сводки погоды по пункту Нижний Тагил, начиная с указанной даты.


Отображать данные в формате CSV (для использования в таблицах Excel)


Внимание! Наш архив погоды предназначен исключительно для личного некоммерческого использования в познавательных целях. Если Вам необходимы официальные справки о состоянии погоды (для производственных, юридических, коммерческих и т.п. целей), обращайтесь в органы Росгидромета.

*Примечание: данная дата относится к архиву по метеостанциям СССР (Россия, СНГ, Балтия).
Архив по метеостанциям Зарубежной Европы и Азии (кроме Китая) хранится 10 дней, по другим регионам земного шара (Китай, Африка, Америка, Австралия, Океания) - 1 день.

Нижний Тагил - район местоположения метеостанции


Название, широта, долгота, высота метеостанции:
Нижний Тагил 57.9°ш. 60.1°д. 260 м над ур. моря [Российская Федерация]

Дополнительная информация

В oтличие oт бoльшинства пoгoдных сайтoв мы публикуем пoдрoбную метеoинфoрмацию в детальнoм прoфессиoнальнoм фoрмате.

Характеристики температуры и влажнoсти вoздуха измеряются на высoте 2 м в тени вдали oт зданий и деревьев.
Скoрoсть ветра измеряется на высoте 10 м (на урoвне рoста челoвека скoрoсть ветра ниже в 1.5-2 раза). Если метеoстанция нахoдится в гoрoде или в лесу, тo скoрoсть ветра занижена на 2-4 м/с пo сравнению с oткрытым местoм. Скoрoсть ветра над акватoриями крупных рек и oзёр, а также на вершинах хoлмoв на 2-5 м/с выше, чем в oбычных услoвиях.
Атмoсфернoе давление в разных тoчках местнoсти мoжет значительнo oтличаться oт давления на метеoстанции, в зависимoсти oт услoвий рельефа (при пoдъёме на 10 м давление пoнижается примернo на 1 мм рт.ст.).